Nashville, TN

3:58 PM CDT on June 19, 2018 (GMT -0500)
Nashville International

Weather History for KBNA - December, 2017

Change the Weather History Date:

Thursday, December 7, 2017

  Actual Average Record
Temperature  
Mean Temperature 38 °F 42 °F  
Max Temperature 46 °F 52 °F 72 °F (1951)
Min Temperature 29 °F 33 °F 10 °F (1977)
Degree Days  
Heating Degree Days 27    
Month to date heating degree days 113  
Since 1 July heating degree days 687  
Cooling Degree Days 0    
Month to date cooling degree days 0  
Year to date cooling degree days 1923  
Moisture  
Dew Point 25 °F    
Average Humidity 63    
Maximum Humidity 82    
Minimum Humidity 51    
Precipitation  
Precipitation 0.00 in 0.15 in 2.79 in (1951)
Month to date precipitation 0.48 1.07  
Year to date precipitation 48.84 44.08  
Sea Level Pressure  
Sea Level Pressure 30.24 in    
Wind  
Wind Speed 7 mph (NNW)    
Max Wind Speed 15 mph    
Max Gust Speed 25 mph    
Visibility 10 miles    
Events      
T = Trace of Precipitation, MM = Missing Value Source: NWS Daily Summary

Daily Weather History Graph

Daily Weather History Graph

Search for Another Location

Airport or City:

Astronomy

Dec. 07, 2017 Rise Set
Actual Time 6:44 AM CST 4:32 PM CST
Civil Twilight 6:16 AM CST 5:00 PM CST
Nautical Twilight 5:44 AM CST 5:32 PM CST
Astronomical Twilight 5:13 AM CST 6:03 PM CST
Moon 9:14 PM CST (12/7) 10:26 AM CST (12/7)
Length of Visible Light 10h 44m
Length of Day
9h 47m
Waning Gibbous, 77% of the Moon is Illuminated
Dec 7
Waning Gibbous
Dec 10
Last Quarter
Dec 18
New
Dec 26
First Quarter
Jan 1
Full

Hourly Weather History & Observations

Time (CST) Temp. Windchill Dew Point Humidity Pressure Visibility Wind Dir Wind Speed Gust Speed Precip Events Conditions
12:53 AM 36.0 °F - 28.9 °F 76% 30.21 in 10.0 mi Calm Calm - N/A   Mostly Cloudy
1:53 AM 36.0 °F 33.3 °F 28.9 °F 76% 30.21 in 10.0 mi South 3.5 mph - N/A   Mostly Cloudy
2:53 AM 35.1 °F 31.0 °F 30.0 °F 82% 30.20 in 10.0 mi South 4.6 mph - N/A   Mostly Cloudy
4:53 AM 35.1 °F 32.2 °F 28.9 °F 78% 30.20 in 10.0 mi SSW 3.5 mph - N/A   Scattered Clouds
5:53 AM 35.1 °F 31.0 °F 28.0 °F 76% 30.20 in 10.0 mi West 4.6 mph - N/A   Scattered Clouds
6:53 AM 33.1 °F - 28.9 °F 85% 30.22 in 10.0 mi Calm Calm - N/A   Scattered Clouds
7:53 AM 37.0 °F 31.0 °F 28.0 °F 70% 30.24 in 10.0 mi WNW 8.1 mph - N/A   Scattered Clouds
8:53 AM 37.9 °F 31.5 °F 28.9 °F 70% 30.25 in 10.0 mi NW 9.2 mph - N/A   Scattered Clouds
9:53 AM 41.0 °F 35.8 °F 28.9 °F 62% 30.27 in 10.0 mi North 8.1 mph - N/A   Mostly Cloudy
10:53 AM 44.1 °F 40.1 °F 28.9 °F 55% 30.25 in 10.0 mi Variable 6.9 mph - N/A   Mostly Cloudy
11:53 AM 44.1 °F 39.0 °F 28.0 °F 53% 30.23 in 10.0 mi NW 9.2 mph - N/A   Mostly Cloudy
12:53 PM 44.1 °F 37.4 °F 28.0 °F 53% 30.22 in 10.0 mi NW 13.8 mph - N/A   Mostly Cloudy
1:04 PM 42.1 °F 35.2 °F 28.0 °F 58% 30.21 in 10.0 mi NNW 12.7 mph - N/A   Mostly Cloudy
1:53 PM 39.0 °F 32.3 °F 26.1 °F 60% 30.24 in 10.0 mi NNW 10.4 mph - N/A   Mostly Cloudy
2:53 PM 41.0 °F 35.2 °F 25.0 °F 53% 30.23 in 10.0 mi NW 9.2 mph - N/A   Mostly Cloudy
3:53 PM 37.9 °F 31.5 °F 25.0 °F 60% 30.23 in 10.0 mi North 9.2 mph - N/A   Mostly Cloudy
4:53 PM 36.0 °F 29.0 °F 23.0 °F 59% 30.24 in 10.0 mi North 9.2 mph - N/A   Mostly Cloudy
5:53 PM 34.0 °F 26.6 °F 19.9 °F 56% 30.25 in 10.0 mi North 9.2 mph - N/A   Mostly Cloudy
6:53 PM 33.1 °F 24.4 °F 19.0 °F 56% 30.27 in 10.0 mi NNW 11.5 mph - N/A   Overcast
7:53 PM 30.9 °F 22.2 °F 19.0 °F 61% 30.27 in 10.0 mi North 10.4 mph - N/A   Overcast
8:53 PM 30.0 °F 20.5 °F 19.9 °F 66% 30.26 in 10.0 mi North 11.5 mph - N/A   Overcast
9:53 PM 28.9 °F 20.4 °F 19.0 °F 67% 30.25 in 10.0 mi North 9.2 mph - N/A   Overcast
10:53 PM 28.9 °F 21.9 °F 19.9 °F 69% 30.25 in 10.0 mi North 6.9 mph - N/A   Mostly Cloudy
11:53 PM 30.0 °F 25.2 °F 19.9 °F 66% 30.27 in 10.0 mi North 4.6 mph - N/A   Overcast